Wellsville, NY

7:52 PM EST on December 12, 2019 (GMT -0500)
Wellsville Municipal-Tarantine

Weather History for KELZ - August, 2019

Change the Weather History Date:

Friday, August 16, 2019

  Actual Average (KDSV) Record (KDSV)
Temperature  
Mean Temperature 70 °F -  
Max Temperature 78 °F 80 °F 98 °F (1959)
Min Temperature 62 °F 56 °F 43 °F (1948)
Cooling Degree Days 4    
Growing Degree Days 20 (Base 50)    
Moisture  
Dew Point 63 °F    
Average Humidity 87    
Maximum Humidity 100    
Minimum Humidity 62    
Precipitation  
Precipitation 0.00 in - - ()
Sea Level Pressure  
Sea Level Pressure 30.02 in    
Wind  
Wind Speed 4 mph ()    
Max Wind Speed 8 mph    
Max Gust Speed -    
Visibility 8.1 miles    
Events      
Averages and records for this station are not official NWS values.
T = Trace of Precipitation, MM = Missing Value Source: Averaged Metar Reports

Daily Weather History Graph

Daily Weather History Graph

Search for Another Location

Airport or City:

Astronomy

Aug. 16, 2019 Rise Set
Actual Time 6:20 AM EDT 8:11 PM EDT
Civil Twilight 5:50 AM EDT 8:41 PM EDT
Nautical Twilight 5:13 AM EDT 9:17 PM EDT
Astronomical Twilight 4:33 AM EDT 9:57 PM EDT
Moon 9:09 PM EDT (8/16) 7:10 AM EDT (8/16)
Length of Visible Light 14h 51m
Length of Day
13h 50m
Full, 99% of the Moon is Illuminated
Aug 16
Full
Aug 23
Last Quarter
Aug 30
New
Sep 5
First Quarter
Sep 14
Full

Hourly Weather History & Observations

Time (EDT) Temp. Dew Point Humidity Pressure Visibility Wind Dir Wind Speed Gust Speed Precip Events Conditions
12:56 AM 62.1 °F 61.0 °F 96% 29.99 in 10.0 mi SSE 4.6 mph - N/A   Overcast
1:56 AM 63.0 °F 62.1 °F 97% 29.98 in 10.0 mi Variable 4.6 mph - N/A   Mostly Cloudy
2:56 AM 62.1 °F 61.0 °F 96% 29.98 in 10.0 mi Calm Calm - N/A   Overcast
3:56 AM 63.0 °F 62.1 °F 97% 29.99 in 9.0 mi SW 5.8 mph - N/A   Clear
4:56 AM 63.0 °F 62.1 °F 97% 30.00 in 9.0 mi South 4.6 mph - N/A   Clear
5:30 AM 63.0 °F 62.1 °F 97% 30.03 in 8.0 mi South 8.1 mph - N/A   Mostly Cloudy
5:56 AM 64.0 °F 63.0 °F 96% 30.00 in 8.0 mi SSW 4.6 mph - N/A   Overcast
6:03 AM 64.0 °F 63.0 °F 96% 30.02 in 8.0 mi Calm Calm - N/A   Overcast
6:56 AM 64.0 °F 63.0 °F 96% 30.01 in 4.0 mi Calm Calm - N/A   Overcast
7:18 AM 64.0 °F 63.0 °F 96% 30.03 in 3.0 mi Calm Calm - N/A   Overcast
7:53 AM 64.4 °F 64.4 °F 100% 30.04 in 2.5 mi SW 5.8 mph - N/A   Overcast
7:56 AM 64.0 °F 64.0 °F 100% 30.02 in 2.5 mi Variable 3.5 mph - N/A   Overcast
8:12 AM 64.9 °F 64.0 °F 97% 30.04 in 4.0 mi SW 3.5 mph - N/A   Overcast
8:25 AM 64.9 °F 64.0 °F 97% 30.04 in 4.0 mi SSW 3.5 mph - N/A   Overcast
8:56 AM 66.0 °F 64.9 °F 96% 30.03 in 5.0 mi Variable 4.6 mph - N/A   Overcast
9:56 AM 66.9 °F 64.9 °F 93% 30.03 in 5.0 mi Variable 3.5 mph - N/A   Overcast
10:51 AM 69.8 °F 64.4 °F 83% 30.05 in 9.0 mi SSW 5.8 mph - N/A   Overcast
10:56 AM 69.1 °F 64.9 °F 87% 30.03 in 9.0 mi WSW 5.8 mph - N/A   Mostly Cloudy
11:18 AM 71.1 °F 64.9 °F 81% 30.05 in 10.0 mi WSW 4.6 mph - N/A   Mostly Cloudy
11:56 AM 73.0 °F 66.0 °F 79% 30.03 in 10.0 mi North - - N/A   Mostly Cloudy
12:42 PM 72.0 °F 64.9 °F 78% 30.06 in 10.0 mi West 6.9 mph - N/A   Overcast
12:56 PM 73.0 °F 64.9 °F 76% 30.02 in 10.0 mi Calm Calm - N/A   Mostly Cloudy
1:56 PM 75.0 °F 63.0 °F 66% 30.02 in 10.0 mi WSW 6.9 mph - N/A   Mostly Cloudy
2:56 PM 75.9 °F 64.0 °F 67% 30.01 in 10.0 mi SW 5.8 mph - N/A   Mostly Cloudy
3:56 PM 77.0 °F 63.0 °F 62% 29.99 in 10.0 mi SW 5.8 mph - N/A   Partly Cloudy
4:56 PM 75.9 °F 62.1 °F 62% 29.98 in 10.0 mi SW 6.9 mph - N/A   Scattered Clouds
6:56 PM 73.9 °F 61.0 °F 64% 29.98 in 10.0 mi West 6.9 mph - N/A   Scattered Clouds
7:56 PM 71.1 °F 62.1 °F 73% 29.99 in 10.0 mi West 4.6 mph - N/A   Scattered Clouds
8:56 PM 68.0 °F 64.0 °F 87% 30.02 in 10.0 mi NW 8.1 mph - N/A   Mostly Cloudy
9:56 PM 64.9 °F 63.0 °F 93% 30.03 in 10.0 mi Calm Calm - N/A   Clear
10:56 PM 64.9 °F 63.0 °F 93% 30.04 in 10.0 mi Calm Calm - N/A   Clear
11:56 PM 64.0 °F 63.0 °F 96% 30.03 in 8.0 mi Calm Calm - N/A   Clear